Wetterdaten: Donnerstag, 22.02.2007
Datum Zeit Temp. A. Feuchte A. Luftdruck Regen Wind Richtung Richtung Sonnenschein UV Solar Windben
22.02.2007 00:00 6,7 C 86 % 1009,8 hPa 0,0 mm 3,2 km/h (1 Bft) W-SW 247 0 min 0 UV-I 0 W/m 11,3 km/h (2 Bft)
22.02.2007 00:10 6,6 C 87 % 1009,9 hPa 0,0 mm 3,2 km/h (1 Bft) W-SW 247 0 min 0 UV-I 0 W/m 9,7 km/h (2 Bft)
22.02.2007 00:20 6,5 C 87 % 1009,9 hPa 0,0 mm 3,2 km/h (1 Bft) W-SW 247 0 min 0 UV-I 0 W/m 8,0 km/h (2 Bft)
22.02.2007 00:30 6,4 C 87 % 1010,0 hPa 0,0 mm 3,2 km/h (1 Bft) W-SW 247 0 min 0 UV-I 0 W/m 11,3 km/h (2 Bft)
22.02.2007 00:40 6,5 C 87 % 1010,0 hPa 0,0 mm 3,2 km/h (1 Bft) W-SW 247 0 min 0 UV-I 0 W/m 9,7 km/h (2 Bft)
22.02.2007 00:50 6,6 C 87 % 1010,0 hPa 0,0 mm 3,2 km/h (1 Bft) W-SW 247 0 min 0 UV-I 0 W/m 9,7 km/h (2 Bft)
22.02.2007 01:00 6,6 C 86 % 1010,0 hPa 0,0 mm 3,2 km/h (1 Bft) SW 225 0 min 0 UV-I 0 W/m 9,7 km/h (2 Bft)
22.02.2007 01:10 6,7 C 86 % 1010,0 hPa 0,0 mm 3,2 km/h (1 Bft) W-SW 247 0 min 0 UV-I 0 W/m 11,3 km/h (2 Bft)
22.02.2007 01:20 6,7 C 85 % 1010,0 hPa 0,0 mm 3,2 km/h (1 Bft) SW 225 0 min 0 UV-I 0 W/m 9,7 km/h (2 Bft)
22.02.2007 01:30 6,7 C 85 % 1010,1 hPa 0,0 mm 3,2 km/h (1 Bft) W-SW 247 0 min 0 UV-I 0 W/m 14,5 km/h (3 Bft)
22.02.2007 01:40 6,7 C 85 % 1010,1 hPa 0,0 mm 3,2 km/h (1 Bft) SW 225 0 min 0 UV-I 0 W/m 9,7 km/h (2 Bft)
22.02.2007 01:50 6,7 C 86 % 1010,2 hPa 0,0 mm 3,2 km/h (1 Bft) W-SW 247 0 min 0 UV-I 0 W/m 9,7 km/h (2 Bft)
22.02.2007 02:00 6,7 C 86 % 1010,2 hPa 0,0 mm 3,2 km/h (1 Bft) SW 225 0 min 0 UV-I 0 W/m 9,7 km/h (2 Bft)
22.02.2007 02:10 6,6 C 85 % 1010,2 hPa 0,0 mm 3,2 km/h (1 Bft) W-SW 247 0 min 0 UV-I 0 W/m 11,3 km/h (2 Bft)
22.02.2007 02:20 6,6 C 85 % 1010,2 hPa 0,0 mm 3,2 km/h (1 Bft) SW 225 0 min 0 UV-I 0 W/m 9,7 km/h (2 Bft)
22.02.2007 02:30 6,4 C 85 % 1010,3 hPa 0,0 mm 3,2 km/h (1 Bft) W-SW 247 0 min 0 UV-I 0 W/m 6,4 km/h (2 Bft)
22.02.2007 02:40 6,3 C 85 % 1010,3 hPa 0,0 mm 1,6 km/h (1 Bft) SW 225 0 min 0 UV-I 0 W/m 9,7 km/h (2 Bft)
22.02.2007 02:50 6,1 C 86 % 1010,2 hPa 0,0 mm 1,6 km/h (1 Bft) SW 225 0 min 0 UV-I 0 W/m 9,7 km/h (2 Bft)
22.02.2007 03:00 6,0 C 86 % 1010,3 hPa 0,0 mm 1,6 km/h (1 Bft) SW 225 0 min 0 UV-I 0 W/m 8,0 km/h (2 Bft)
22.02.2007 03:10 5,9 C 86 % 1010,4 hPa 0,0 mm 1,6 km/h (1 Bft) W-SW 247 0 min 0 UV-I 0 W/m 6,4 km/h (2 Bft)
22.02.2007 03:20 5,8 C 87 % 1010,4 hPa 0,0 mm 1,6 km/h (1 Bft) SW 225 0 min 0 UV-I 0 W/m 6,4 km/h (2 Bft)
22.02.2007 03:30 5,8 C 87 % 1010,4 hPa 0,0 mm 1,6 km/h (1 Bft) W-SW 247 0 min 0 UV-I 0 W/m 8,0 km/h (2 Bft)
22.02.2007 03:40 5,9 C 87 % 1010,5 hPa 0,0 mm 1,6 km/h (1 Bft) W-SW 247 0 min 0 UV-I 0 W/m 6,4 km/h (2 Bft)
22.02.2007 03:50 5,9 C 87 % 1010,5 hPa 0,0 mm 3,2 km/h (1 Bft) SW 225 0 min 0 UV-I 0 W/m 8,0 km/h (2 Bft)
22.02.2007 04:00 6,1 C 86 % 1010,4 hPa 0,0 mm 1,6 km/h (1 Bft) SW 225 0 min 0 UV-I 0 W/m 8,0 km/h (2 Bft)
22.02.2007 04:10 6,1 C 86 % 1010,4 hPa 0,0 mm 1,6 km/h (1 Bft) W-SW 247 0 min 0 UV-I 0 W/m 9,7 km/h (2 Bft)
22.02.2007 04:20 6,1 C 85 % 1010,6 hPa 0,0 mm 1,6 km/h (1 Bft) W-SW 247 0 min 0 UV-I 0 W/m 8,0 km/h (2 Bft)
22.02.2007 04:30 6,1 C 84 % 1010,6 hPa 0,0 mm 1,6 km/h (1 Bft) W-SW 247 0 min 0 UV-I 0 W/m 4,8 km/h (1 Bft)
22.02.2007 04:40 5,9 C 84 % 1010,6 hPa 0,0 mm 1,6 km/h (1 Bft) SW 225 0 min 0 UV-I 0 W/m 6,4 km/h (2 Bft)
22.02.2007 04:50 5,8 C 84 % 1010,6 hPa 0,0 mm 1,6 km/h (1 Bft) W-SW 247 0 min 0 UV-I 0 W/m 4,8 km/h (1 Bft)
22.02.2007 05:00 5,7 C 85 % 1010,7 hPa 0,0 mm 0,0 km/h (0 Bft) W-SW 247 0 min 0 UV-I 0 W/m 3,2 km/h (1 Bft)
22.02.2007 05:10 5,6 C 84 % 1010,8 hPa 0,0 mm 1,6 km/h (1 Bft) W-SW 247 0 min 0 UV-I 0 W/m 6,4 km/h (2 Bft)
22.02.2007 05:20 5,4 C 84 % 1010,8 hPa 0,0 mm 0,0 km/h (0 Bft) W-SW 247 0 min 0 UV-I 0 W/m 3,2 km/h (1 Bft)
22.02.2007 05:30 5,3 C 84 % 1010,7 hPa 0,0 mm 0,0 km/h (0 Bft) SW 225 0 min 0 UV-I 0 W/m 3,2 km/h (1 Bft)
22.02.2007 05:40 5,1 C 85 % 1010,7 hPa 0,0 mm 0,0 km/h (0 Bft) N 0 0 min 0 UV-I 0 W/m 0,0 km/h (0 Bft)
22.02.2007 05:50 4,9 C 85 % 1010,7 hPa 0,0 mm 0,0 km/h (0 Bft) N 0 0 min 0 UV-I 0 W/m 0,0 km/h (0 Bft)
22.02.2007 06:00 4,7 C 84 % 1010,8 hPa 0,0 mm 0,0 km/h (0 Bft) N 0 0 min 0 UV-I 0 W/m 0,0 km/h (0 Bft)
22.02.2007 06:10 4,4 C 85 % 1010,9 hPa 0,0 mm 0,0 km/h (0 Bft) N 0 0 min 0 UV-I 0 W/m 0,0 km/h (0 Bft)
22.02.2007 06:20 4,1 C 85 % 1010,9 hPa 0,0 mm 0,0 km/h (0 Bft) N 0 0 min 0 UV-I 0 W/m 0,0 km/h (0 Bft)
22.02.2007 06:30 3,8 C 87 % 1011,1 hPa 0,0 mm 0,0 km/h (0 Bft) N 0 0 min 0 UV-I 0 W/m 0,0 km/h (0 Bft)
22.02.2007 06:40 3,6 C 88 % 1011,1 hPa 0,0 mm 0,0 km/h (0 Bft) N 0 0 min 0 UV-I 0 W/m 0,0 km/h (0 Bft)
22.02.2007 06:50 3,3 C 88 % 1011,1 hPa 0,0 mm 0,0 km/h (0 Bft) N 0 0 min 0 UV-I 0 W/m 0,0 km/h (0 Bft)
22.02.2007 07:00 3,1 C 89 % 1011,3 hPa 0,0 mm 0,0 km/h (0 Bft) N 0 0 min 0 UV-I 0 W/m 0,0 km/h (0 Bft)
22.02.2007 07:10 2,9 C 89 % 1011,2 hPa 0,0 mm 0,0 km/h (0 Bft) N 0 0 min 0 UV-I 0 W/m 0,0 km/h (0 Bft)
22.02.2007 07:20 2,7 C 89 % 1011,2 hPa 0,0 mm 0,0 km/h (0 Bft) N 0 0 min 0 UV-I 0 W/m 0,0 km/h (0 Bft)
22.02.2007 07:30 2,6 C 89 % 1011,3 hPa 0,0 mm 0,0 km/h (0 Bft) N 0 0 min 0 UV-I 0 W/m 0,0 km/h (0 Bft)
22.02.2007 07:40 2,4 C 89 % 1011,4 hPa 0,0 mm 0,0 km/h (0 Bft) N 0 10 min 0 UV-I 14 W/m 0,0 km/h (0 Bft)
22.02.2007 07:50 2,3 C 91 % 1011,5 hPa 0,0 mm 0,0 km/h (0 Bft) N 0 0 min 0 UV-I 16 W/m 0,0 km/h (0 Bft)
22.02.2007 08:00 2,3 C 92 % 1011,5 hPa 0,0 mm 0,0 km/h (0 Bft) N 0 0 min 0 UV-I 12 W/m 0,0 km/h (0 Bft)
22.02.2007 08:10 2,4 C 93 % 1011,5 hPa 0,0 mm 0,0 km/h (0 Bft) SW 225 0 min 0 UV-I 25 W/m 1,6 km/h (1 Bft)
22.02.2007 08:20 2,7 C 93 % 1011,5 hPa 0,0 mm 0,0 km/h (0 Bft) N 0 0 min 0 UV-I 53 W/m 0,0 km/h (0 Bft)
22.02.2007 08:30 2,8 C 94 % 1011,6 hPa 0,0 mm 0,0 km/h (0 Bft) N 0 0 min 0 UV-I 53 W/m 0,0 km/h (0 Bft)
22.02.2007 08:40 3,0 C 94 % 1011,7 hPa 0,0 mm 0,0 km/h (0 Bft) N 0 10 min 0 UV-I 127 W/m 0,0 km/h (0 Bft)
22.02.2007 08:50 3,6 C 93 % 1011,6 hPa 0,0 mm 0,0 km/h (0 Bft) S-SO 157 10 min 0 UV-I 137 W/m 1,6 km/h (1 Bft)
22.02.2007 09:00 4,5 C 89 % 1011,6 hPa 0,0 mm 0,0 km/h (0 Bft) N 0 0 min 0 UV-I 104 W/m 0,0 km/h (0 Bft)
22.02.2007 09:10 4,9 C 86 % 1011,6 hPa 0,0 mm 0,0 km/h (0 Bft) SO 135 0 min 0 UV-I 105 W/m 3,2 km/h (1 Bft)
22.02.2007 09:20 5,4 C 85 % 1011,7 hPa 0,0 mm 0,0 km/h (0 Bft) O-SO 112 10 min 0 UV-I 227 W/m 3,2 km/h (1 Bft)
22.02.2007 09:30 5,8 C 84 % 1011,5 hPa 0,0 mm 0,0 km/h (0 Bft) O-SO 112 10 min 1 UV-I 241 W/m 3,2 km/h (1 Bft)
22.02.2007 09:40 6,3 C 83 % 1011,6 hPa 0,0 mm 0,0 km/h (0 Bft) SO 135 10 min 1 UV-I 227 W/m 3,2 km/h (1 Bft)
22.02.2007 09:50 6,8 C 81 % 1011,5 hPa 0,0 mm 1,6 km/h (1 Bft) O-SO 112 10 min 1 UV-I 243 W/m 4,8 km/h (1 Bft)
22.02.2007 10:00 7,3 C 79 % 1011,6 hPa 0,0 mm 0,0 km/h (0 Bft) O-SO 112 10 min 1 UV-I 264 W/m 4,8 km/h (1 Bft)
22.02.2007 10:10 7,7 C 79 % 1011,6 hPa 0,0 mm 0,0 km/h (0 Bft) SO 135 10 min 1 UV-I 269 W/m 3,2 km/h (1 Bft)
22.02.2007 10:20 7,9 C 78 % 1011,6 hPa 0,0 mm 1,6 km/h (1 Bft) O 90 10 min 1 UV-I 230 W/m 4,8 km/h (1 Bft)
22.02.2007 10:30 8,4 C 76 % 1011,6 hPa 0,0 mm 1,6 km/h (1 Bft) SW 225 10 min 1 UV-I 353 W/m 6,4 km/h (2 Bft)
22.02.2007 10:40 9,0 C 74 % 1011,6 hPa 0,0 mm 1,6 km/h (1 Bft) W-SW 247 10 min 1 UV-I 411 W/m 6,4 km/h (2 Bft)
22.02.2007 10:50 9,3 C 74 % 1011,6 hPa 0,0 mm 0,0 km/h (0 Bft) W 270 10 min 2 UV-I 378 W/m 3,2 km/h (1 Bft)
22.02.2007 11:00 9,8 C 70 % 1011,7 hPa 0,0 mm 1,6 km/h (1 Bft) W-SW 247 10 min 2 UV-I 520 W/m 4,8 km/h (1 Bft)
22.02.2007 11:10 10,1 C 70 % 1011,7 hPa 0,0 mm 1,6 km/h (1 Bft) W-SW 247 10 min 2 UV-I 415 W/m 6,4 km/h (2 Bft)
22.02.2007 11:20 9,8 C 70 % 1011,7 hPa 0,0 mm 1,6 km/h (1 Bft) W-SW 247 10 min 2 UV-I 287 W/m 8,0 km/h (2 Bft)
22.02.2007 11:30 9,8 C 72 % 1011,7 hPa 0,0 mm 0,0 km/h (0 Bft) W-SW 247 10 min 2 UV-I 278 W/m 4,8 km/h (1 Bft)
22.02.2007 11:40 10,0 C 70 % 1011,9 hPa 0,0 mm 1,6 km/h (1 Bft) W-SW 247 10 min 2 UV-I 294 W/m 8,0 km/h (2 Bft)
22.02.2007 11:50 10,1 C 72 % 1011,8 hPa 0,0 mm 1,6 km/h (1 Bft) W-SW 247 10 min 2 UV-I 325 W/m 9,7 km/h (2 Bft)
22.02.2007 12:00 10,3 C 68 % 1011,8 hPa 0,0 mm 1,6 km/h (1 Bft) W-SW 247 10 min 2 UV-I 387 W/m 6,4 km/h (2 Bft)
22.02.2007 12:10 10,4 C 67 % 1011,8 hPa 0,0 mm 1,6 km/h (1 Bft) W-SW 247 10 min 2 UV-I 417 W/m 4,8 km/h (1 Bft)
22.02.2007 12:20 10,6 C 66 % 1011,9 hPa 0,0 mm 3,2 km/h (1 Bft) W-SW 247 10 min 2 UV-I 425 W/m 9,7 km/h (2 Bft)
22.02.2007 12:30 10,7 C 65 % 1011,9 hPa 0,0 mm 1,6 km/h (1 Bft) W-SW 247 10 min 2 UV-I 392 W/m 8,0 km/h (2 Bft)
22.02.2007 12:40 10,7 C 66 % 1011,8 hPa 0,0 mm 1,6 km/h (1 Bft) W 270 10 min 2 UV-I 323 W/m 6,4 km/h (2 Bft)
22.02.2007 12:50 10,9 C 65 % 1011,6 hPa 0,0 mm 1,6 km/h (1 Bft) SW 225 10 min 2 UV-I 406 W/m 8,0 km/h (2 Bft)
22.02.2007 13:00 11,1 C 64 % 1011,6 hPa 0,0 mm 1,6 km/h (1 Bft) W-SW 247 10 min 2 UV-I 355 W/m 8,0 km/h (2 Bft)
22.02.2007 13:10 11,1 C 63 % 1011,5 hPa 0,0 mm 1,6 km/h (1 Bft) SW 225 10 min 2 UV-I 380 W/m 6,4 km/h (2 Bft)
22.02.2007 13:20 11,4 C 60 % 1011,4 hPa 0,0 mm 3,2 km/h (1 Bft) W-SW 247 10 min 2 UV-I 434 W/m 8,0 km/h (2 Bft)
22.02.2007 13:30 11,5 C 59 % 1011,3 hPa 0,0 mm 3,2 km/h (1 Bft) W-SW 247 10 min 2 UV-I 297 W/m 8,0 km/h (2 Bft)
22.02.2007 13:40 11,4 C 60 % 1011,3 hPa 0,0 mm 1,6 km/h (1 Bft) W-SW 247 10 min 2 UV-I 264 W/m 8,0 km/h (2 Bft)
22.02.2007 13:50 11,5 C 56 % 1011,2 hPa 0,0 mm 3,2 km/h (1 Bft) W-SW 247 10 min 2 UV-I 272 W/m 8,0 km/h (2 Bft)
22.02.2007 14:00 11,4 C 56 % 1011,3 hPa 0,0 mm 3,2 km/h (1 Bft) W 270 10 min 2 UV-I 288 W/m 8,0 km/h (2 Bft)
22.02.2007 14:10 11,5 C 58 % 1011,3 hPa 0,0 mm 3,2 km/h (1 Bft) W 270 10 min 2 UV-I 271 W/m 8,0 km/h (2 Bft)
22.02.2007 14:20 11,5 C 59 % 1011,3 hPa 0,0 mm 3,2 km/h (1 Bft) W-SW 247 10 min 1 UV-I 230 W/m 8,0 km/h (2 Bft)
22.02.2007 14:30 11,6 C 60 % 1011,2 hPa 0,0 mm 3,2 km/h (1 Bft) SW 225 10 min 1 UV-I 260 W/m 9,7 km/h (2 Bft)
22.02.2007 14:40 11,6 C 59 % 1011,1 hPa 0,0 mm 3,2 km/h (1 Bft) W-SW 247 10 min 1 UV-I 288 W/m 9,7 km/h (2 Bft)
22.02.2007 14:50 11,4 C 59 % 1011,1 hPa 0,0 mm 3,2 km/h (1 Bft) SW 225 10 min 1 UV-I 241 W/m 6,4 km/h (2 Bft)
22.02.2007 15:00 11,3 C 60 % 1011,2 hPa 0,0 mm 3,2 km/h (1 Bft) W-SW 247 10 min 1 UV-I 221 W/m 8,0 km/h (2 Bft)
22.02.2007 15:10 11,2 C 60 % 1011,1 hPa 0,0 mm 3,2 km/h (1 Bft) SW 225 0 min 1 UV-I 183 W/m 8,0 km/h (2 Bft)
22.02.2007 15:20 11,3 C 62 % 1011,2 hPa 0,0 mm 1,6 km/h (1 Bft) W-SW 247 0 min 1 UV-I 167 W/m 8,0 km/h (2 Bft)
22.02.2007 15:30 11,3 C 60 % 1011,2 hPa 0,0 mm 3,2 km/h (1 Bft) SW 225 10 min 1 UV-I 185 W/m 6,4 km/h (2 Bft)
22.02.2007 15:40 11,3 C 60 % 1011,2 hPa 0,0 mm 1,6 km/h (1 Bft) SW 225 0 min 1 UV-I 160 W/m 4,8 km/h (1 Bft)
22.02.2007 15:50 11,2 C 60 % 1011,0 hPa 0,0 mm 1,6 km/h (1 Bft) SW 225 0 min 1 UV-I 135 W/m 4,8 km/h (1 Bft)
22.02.2007 16:00 11,2 C 61 % 1011,0 hPa 0,0 mm 0,0 km/h (0 Bft) N-NW 337 0 min 1 UV-I 105 W/m 3,2 km/h (1 Bft)
22.02.2007 16:10 11,1 C 62 % 1010,9 hPa 0,0 mm 0,0 km/h (0 Bft) W-SW 247 0 min 0 UV-I 93 W/m 1,6 km/h (1 Bft)
22.02.2007 16:20 11,1 C 61 % 1010,9 hPa 0,0 mm 0,0 km/h (0 Bft) S-SO 157 0 min 0 UV-I 79 W/m 3,2 km/h (1 Bft)
22.02.2007 16:30 11,1 C 61 % 1010,9 hPa 0,0 mm 0,0 km/h (0 Bft) S-SW 202 0 min 0 UV-I 67 W/m 1,6 km/h (1 Bft)
22.02.2007 16:40 11,1 C 61 % 1010,9 hPa 0,0 mm 0,0 km/h (0 Bft) S-SO 157 0 min 0 UV-I 65 W/m 1,6 km/h (1 Bft)
22.02.2007 16:50 11,0 C 61 % 1011,0 hPa 0,0 mm 0,0 km/h (0 Bft) N 0 0 min 0 UV-I 63 W/m 0,0 km/h (0 Bft)
22.02.2007 17:00 11,0 C 60 % 1010,9 hPa 0,0 mm 0,0 km/h (0 Bft) N 0 0 min 0 UV-I 56 W/m 0,0 km/h (0 Bft)
22.02.2007 17:10 10,9 C 60 % 1010,9 hPa 0,0 mm 0,0 km/h (0 Bft) N 0 0 min 0 UV-I 44 W/m 0,0 km/h (0 Bft)
22.02.2007 17:20 10,8 C 64 % 1011,0 hPa 0,0 mm 0,0 km/h (0 Bft) O 90 0 min 0 UV-I 33 W/m 4,8 km/h (1 Bft)
22.02.2007 17:30 10,3 C 69 % 1011,0 hPa 0,0 mm 1,6 km/h (1 Bft) O-SO 112 10 min 0 UV-I 25 W/m 6,4 km/h (2 Bft)
22.02.2007 17:40 10,0 C 71 % 1011,1 hPa 0,0 mm 0,0 km/h (0 Bft) SO 135 10 min 0 UV-I 14 W/m 4,8 km/h (1 Bft)
22.02.2007 17:50 9,7 C 71 % 1011,1 hPa 0,0 mm 1,6 km/h (1 Bft) S-SO 157 0 min 0 UV-I 0 W/m 6,4 km/h (2 Bft)
22.02.2007 18:00 9,6 C 72 % 1011,1 hPa 0,0 mm 1,6 km/h (1 Bft) O 90 0 min 0 UV-I 0 W/m 4,8 km/h (1 Bft)
22.02.2007 18:10 9,5 C 73 % 1011,2 hPa 0,0 mm 0,0 km/h (0 Bft) O 90 0 min 0 UV-I 0 W/m 6,4 km/h (2 Bft)
22.02.2007 18:20 9,3 C 73 % 1011,2 hPa 0,0 mm 0,0 km/h (0 Bft) O 90 0 min 0 UV-I 0 W/m 4,8 km/h (1 Bft)
22.02.2007 18:30 9,2 C 74 % 1011,2 hPa 0,0 mm 0,0 km/h (0 Bft) O 90 0 min 0 UV-I 0 W/m 3,2 km/h (1 Bft)
22.02.2007 18:40 9,2 C 74 % 1011,3 hPa 0,0 mm 0,0 km/h (0 Bft) S-SO 157 0 min 0 UV-I 0 W/m 4,8 km/h (1 Bft)
22.02.2007 18:50 9,1 C 74 % 1011,5 hPa 0,0 mm 1,6 km/h (1 Bft) O 90 0 min 0 UV-I 0 W/m 4,8 km/h (1 Bft)
22.02.2007 19:00 9,0 C 74 % 1011,6 hPa 0,0 mm 1,6 km/h (1 Bft) O 90 0 min 0 UV-I 0 W/m 4,8 km/h (1 Bft)
22.02.2007 19:10 8,9 C 74 % 1011,6 hPa 0,0 mm 1,6 km/h (1 Bft) SO 135 0 min 0 UV-I 0 W/m 4,8 km/h (1 Bft)
22.02.2007 19:30 8,7 C 75 % 1011,6 hPa 0,0 mm 1,1 km/h (1 Bft) NO 49 0 min 0 UV-I 0 W/m 4,8 km/h (1 Bft)
22.02.2007 19:35 8,6 C 75 % 1011,6 hPa 0,0 mm 1,1 km/h (1 Bft) O-SO 115 0 min 0 UV-I 0 W/m 4,8 km/h (1 Bft)
22.02.2007 19:40 8,6 C 75 % 1011,5 hPa 0,0 mm 1,6 km/h (1 Bft) S-SO 157 0 min 0 UV-I 0 W/m 6,4 km/h (2 Bft)
22.02.2007 19:50 8,6 C 74 % 1011,5 hPa 0,0 mm 1,6 km/h (1 Bft) O 90 0 min 0 UV-I 0 W/m 8,0 km/h (2 Bft)
22.02.2007 19:55 8,6 C 74 % 1011,5 hPa 0,0 mm 1,6 km/h (1 Bft) S-SO 163 0 min 0 UV-I 0 W/m 1,6 km/h (1 Bft)
22.02.2007 20:00 8,6 C 74 % 1011,6 hPa 0,0 mm 1,5 km/h (1 Bft) O-SO 106 0 min 0 UV-I 0 W/m 6,4 km/h (2 Bft)
22.02.2007 20:05 8,5 C 74 % 1011,5 hPa 0,0 mm 1,6 km/h (1 Bft) S 171 0 min 0 UV-I 0 W/m 6,4 km/h (2 Bft)
22.02.2007 20:10 8,4 C 75 % 1011,5 hPa 0,0 mm 1,4 km/h (1 Bft) SO 146 0 min 0 UV-I 0 W/m 6,4 km/h (2 Bft)
22.02.2007 20:15 8,3 C 75 % 1011,5 hPa 0,0 mm 1,3 km/h (1 Bft) O-NO 60 0 min 0 UV-I 0 W/m 4,8 km/h (1 Bft)
22.02.2007 20:25 8,2 C 75 % 1011,5 hPa 0,0 mm 0,7 km/h (0 Bft) O 92 0 min 0 UV-I 0 W/m 3,2 km/h (1 Bft)
22.02.2007 20:30 8,1 C 76 % 1011,4 hPa 0,0 mm 0,2 km/h (0 Bft) O 97 0 min 0 UV-I 0 W/m 1,6 km/h (1 Bft)
22.02.2007 20:35 7,9 C 76 % 1011,5 hPa 0,0 mm 0,3 km/h (0 Bft) SO 127 0 min 0 UV-I 0 W/m 3,2 km/h (1 Bft)
22.02.2007 20:40 7,8 C 77 % 1011,5 hPa 0,0 mm 0,9 km/h (0 Bft) O-SO 103 0 min 0 UV-I 0 W/m 3,2 km/h (1 Bft)
22.02.2007 20:45 7,7 C 77 % 1011,5 hPa 0,0 mm 0,6 km/h (0 Bft) O-SO 121 0 min 0 UV-I 0 W/m 3,2 km/h (1 Bft)
22.02.2007 20:50 7,7 C 77 % 1011,5 hPa 0,0 mm 0,5 km/h (0 Bft) O-SO 110 0 min 0 UV-I 0 W/m 4,8 km/h (1 Bft)
22.02.2007 20:55 7,6 C 77 % 1011,5 hPa 0,0 mm 0,3 km/h (0 Bft) O-SO 107 0 min 0 UV-I 0 W/m 3,2 km/h (1 Bft)
22.02.2007 21:00 7,6 C 78 % 1011,5 hPa 0,0 mm 0,4 km/h (0 Bft) O 100 0 min 0 UV-I 0 W/m 3,2 km/h (1 Bft)
22.02.2007 21:05 7,6 C 77 % 1011,4 hPa 0,0 mm 0,6 km/h (0 Bft) O-NO 71 0 min 0 UV-I 0 W/m 3,2 km/h (1 Bft)
22.02.2007 21:10 7,6 C 77 % 1011,4 hPa 0,0 mm 0,1 km/h (0 Bft) SO 140 0 min 0 UV-I 0 W/m 3,2 km/h (1 Bft)
22.02.2007 21:15 7,6 C 77 % 1011,4 hPa 0,0 mm 0,1 km/h (0 Bft) O 90 0 min 0 UV-I 0 W/m 1,6 km/h (1 Bft)
22.02.2007 21:20 7,6 C 77 % 1011,4 hPa 0,0 mm 0,1 km/h (0 Bft) O-SO 105 0 min 0 UV-I 0 W/m 1,6 km/h (1 Bft)
22.02.2007 21:25 7,7 C 77 % 1011,5 hPa 0,0 mm 0,1 km/h (0 Bft) O-SO 105 0 min 0 UV-I 0 W/m 1,6 km/h (1 Bft)
22.02.2007 21:30 7,8 C 76 % 1011,4 hPa 0,0 mm 0,1 km/h (0 Bft) O-SO 105 0 min 0 UV-I 0 W/m 1,6 km/h (1 Bft)
22.02.2007 21:35 7,8 C 76 % 1011,5 hPa 0,0 mm 0,0 km/h (0 Bft) O-SO 105 0 min 0 UV-I 0 W/m 0,0 km/h (0 Bft)
22.02.2007 21:40 7,8 C 76 % 1011,5 hPa 0,0 mm 0,0 km/h (0 Bft) O-SO 105 0 min 0 UV-I 0 W/m 1,6 km/h (1 Bft)
22.02.2007 21:45 7,7 C 77 % 1011,5 hPa 0,0 mm 0,0 km/h (0 Bft) O-SO 105 0 min 0 UV-I 0 W/m 0,0 km/h (0 Bft)
22.02.2007 21:50 7,7 C 76 % 1011,5 hPa 0,0 mm 0,0 km/h (0 Bft) O-SO 108 0 min 0 UV-I 0 W/m 1,6 km/h (1 Bft)
22.02.2007 21:55 7,7 C 77 % 1011,5 hPa 0,0 mm 0,1 km/h (0 Bft) O-SO 109 0 min 0 UV-I 0 W/m 1,6 km/h (1 Bft)
22.02.2007 22:00 7,7 C 77 % 1011,4 hPa 0,0 mm 0,1 km/h (0 Bft) SO 145 0 min 0 UV-I 0 W/m 1,6 km/h (1 Bft)
22.02.2007 22:05 7,7 C 77 % 1011,4 hPa 0,0 mm 0,0 km/h (0 Bft) SO 145 0 min 0 UV-I 0 W/m 1,6 km/h (1 Bft)
22.02.2007 22:10 7,7 C 77 % 1011,4 hPa 0,0 mm 0,0 km/h (0 Bft) SO 145 0 min 0 UV-I 0 W/m 0,0 km/h (0 Bft)
22.02.2007 22:15 7,6 C 77 % 1011,4 hPa 0,0 mm 0,0 km/h (0 Bft) SO 145 0 min 0 UV-I 0 W/m 0,0 km/h (0 Bft)
22.02.2007 22:20 7,6 C 77 % 1011,4 hPa 0,0 mm 0,0 km/h (0 Bft) SO 144 0 min 0 UV-I 0 W/m 1,6 km/h (1 Bft)
22.02.2007 22:25 7,5 C 77 % 1011,3 hPa 0,0 mm 0,0 km/h (0 Bft) SO 144 0 min 0 UV-I 0 W/m 1,6 km/h (1 Bft)
22.02.2007 22:30 7,5 C 78 % 1011,3 hPa 0,0 mm 0,0 km/h (0 Bft) SO 144 0 min 0 UV-I 0 W/m 0,0 km/h (0 Bft)
22.02.2007 22:35 7,3 C 79 % 1011,3 hPa 0,0 mm 0,0 km/h (0 Bft) SO 144 0 min 0 UV-I 0 W/m 1,6 km/h (1 Bft)
22.02.2007 22:40 7,2 C 79 % 1011,2 hPa 0,0 mm 0,0 km/h (0 Bft) SO 142 0 min 0 UV-I 0 W/m 0,0 km/h (0 Bft)
22.02.2007 22:45 7,2 C 79 % 1011,2 hPa 0,0 mm 0,2 km/h (0 Bft) S-SO 159 0 min 0 UV-I 0 W/m 3,2 km/h (1 Bft)
22.02.2007 22:50 7,3 C 78 % 1011,1 hPa 0,0 mm 0,3 km/h (0 Bft) S 175 0 min 0 UV-I 0 W/m 3,2 km/h (1 Bft)
22.02.2007 22:55 7,4 C 77 % 1011,1 hPa 0,0 mm 0,0 km/h (0 Bft) S 175 0 min 0 UV-I 0 W/m 0,0 km/h (0 Bft)
22.02.2007 23:00 7,5 C 77 % 1011,1 hPa 0,0 mm 0,0 km/h (0 Bft) O-NO 71 0 min 0 UV-I 0 W/m 1,6 km/h (1 Bft)
22.02.2007 23:05 7,6 C 77 % 1011,0 hPa 0,0 mm 0,0 km/h (0 Bft) O-NO 71 0 min 0 UV-I 0 W/m 1,6 km/h (1 Bft)
22.02.2007 23:10 7,4 C 77 % 1011,0 hPa 0,0 mm 0,0 km/h (0 Bft) O-NO 71 0 min 0 UV-I 0 W/m 0,0 km/h (0 Bft)
22.02.2007 23:15 7,2 C 78 % 1011,0 hPa 0,0 mm 0,0 km/h (0 Bft) O-NO 71 0 min 0 UV-I 0 W/m 0,0 km/h (0 Bft)
22.02.2007 23:20 7,1 C 79 % 1011,0 hPa 0,0 mm 0,0 km/h (0 Bft) O-NO 71 0 min 0 UV-I 0 W/m 0,0 km/h (0 Bft)
22.02.2007 23:25 7,2 C 79 % 1011,0 hPa 0,0 mm 0,0 km/h (0 Bft) O-NO 71 0 min 0 UV-I 0 W/m 1,6 km/h (1 Bft)
22.02.2007 23:30 7,2 C 78 % 1010,9 hPa 0,0 mm 0,0 km/h (0 Bft) O-NO 71 0 min 0 UV-I 0 W/m 1,6 km/h (1 Bft)
22.02.2007 23:35 7,4 C 76 % 1011,0 hPa 0,0 mm 0,2 km/h (0 Bft) SO 137 0 min 0 UV-I 0 W/m 3,2 km/h (1 Bft)
22.02.2007 23:40 7,6 C 75 % 1010,9 hPa 0,0 mm 0,1 km/h (0 Bft) O-SO 107 0 min 0 UV-I 0 W/m 3,2 km/h (1 Bft)
22.02.2007 23:45 7,7 C 75 % 1010,9 hPa 0,0 mm 0,5 km/h (0 Bft) O-SO 106 0 min 0 UV-I 0 W/m 4,8 km/h (1 Bft)
22.02.2007 23:50 7,7 C 75 % 1010,8 hPa 0,0 mm 0,1 km/h (0 Bft) O 98 0 min 0 UV-I 0 W/m 1,6 km/h (1 Bft)
22.02.2007 23:55 7,7 C 75 % 1010,8 hPa 0,0 mm 0,1 km/h (0 Bft) O-NO 63 0 min 0 UV-I 0 W/m 3,2 km/h (1 Bft)
_ Min-Zeit 08:00 13:50 00:00 - 05:00 - - - - - 05:40
Minimum _ 2,2 C 56 % 1009,8 hPa - 0,0 km/h (0 Bft) - - - - - 0,0 km/h (0 Bft)
_ Max-Zeit 14:30 08:30 11:40 00:00 00:00 - - 07:40 10:50 11:00 01:30
Maximum _ 11,7 C 94 % 1011,9 hPa 0,0 mm 3,2 km/h
W-SW (1 Bft)
- - 10 min 2 UV-I 520 W/m 14,5 km/h
N (3 Bft)
Durchschnitt _ 7,7 C 77 % 1011,1 hPa #0,0 mm 1,1 km/h (0 Bft) W-SW - #6:50 h 2 UV-I 217 W/m 4,5 km/h (1 Bft)